[[{"header":{"parameterUnit":"m.s-1","parameterCategory":1,"la1":30.2991,"la2":30.254,"lo1":-89.0895,"lo2":-89.0444,"dy":0.0017,"dx":0.0017,"nx":28,"ny":28,"refTime":"2024-06-20T03:00:00:Z","depth":0,"parameterNumber":2,"parameterNumberName":"U-component_of_WINDS"},"data":[0,0,0,0,0,0,0,0,0,0,0,0,0,0,0,0,0,0,0,0,0,0,0,0,0,0,0,0,0,0,0,0,0,0,0,0,0,0,0,0,0,0,0,0,0,0,0,0,0,0,0,0,0,0,0,0,0,0,-6.7307,-6.7308,0,-6.7414,-6.7415,-6.7416,-6.7236,-6.7229,-6.7223,-6.7217,-6.7332,-6.734,-6.7349,0,0,0,0,0,0,0,0,0,0,0,0,0,-6.6949,-6.6956,-6.7306,-6.7308,-6.7309,-6.7413,-6.7415,-6.7416,-6.7237,-6.7229,-6.7222,-6.7215,-6.7329,-6.7339,-6.735,0,0,0,0,0,0,0,0,0,0,0,0,0,-6.7085,-6.6959,-6.7306,-6.7232,-6.7226,-6.7413,-6.7415,-6.7417,-6.7238,-6.7229,-6.722,-6.7211,-6.7325,-6.7338,-6.7351,-6.7617,0,0,-6.7391,-6.7397,0,0,0,0,0,0,0,0,-6.7078,-6.7098,-6.7241,-6.7237,-6.7231,-6.7302,-6.733,-6.7484,-6.724,-6.7234,-6.7217,-6.7207,-6.733,-6.7342,-6.7382,-6.7622,-6.7627,-6.7393,-6.7401,-6.7406,-6.741,0,0,0,0,0,0,0,-6.7068,-6.7093,-6.7349,-6.7244,-6.7238,-6.7194,-6.7203,-6.7359,-6.7332,-6.7234,-6.7221,-6.7236,-6.7325,-6.737,-6.7384,-6.7629,-6.7392,-6.7404,-6.7412,-6.7417,-6.8092,-6.8101,0,0,0,0,0,0,-6.7068,-6.7086,-6.7345,-6.7352,-6.713,-6.7208,-6.7218,-6.7289,-6.733,-6.7327,-6.7243,-6.7227,-6.7352,-6.7368,-6.7387,-6.77,-6.7406,-6.7418,-6.7426,-6.8082,-6.8094,-6.8105,0,0,0,0,0,0,-6.7061,-6.7092,-6.7341,-6.7216,-6.7244,-6.7224,-6.7304,-6.7296,-6.734,-6.7337,-6.7332,-6.7294,-6.7345,-6.7368,-6.7561,-6.7702,-6.7424,-6.7436,-6.807,-6.8086,-6.81,-6.833,0,0,0,0,0,0,-6.7051,-6.7091,-6.7191,-6.7219,-6.7251,-6.7513,-6.7313,-6.7304,-6.7363,-6.7342,-6.7384,-6.7382,-6.734,-6.7542,-6.7574,-6.7715,-6.7447,-6.8057,-6.8077,-6.8095,-6.831,-6.8351,-6.8386,0,0,0,0,0,-6.7039,-6.7253,-6.7197,-6.723,-6.7376,-6.7521,-6.754,-6.7486,-6.7375,-6.7476,-6.7474,-6.738,-6.7681,-6.7563,-6.7597,-6.7745,-6.8048,-6.8072,-6.8093,-6.8292,-6.8343,-6.8385,0,0,0,0,0,0,-6.7244,-6.7255,-6.7194,-6.7423,-6.7472,-6.749,-6.7616,-6.7542,-6.7625,-6.7602,-6.7533,-6.7544,-6.7751,-6.7767,-6.7635,-6.8004,-6.7846,-6.7877,-6.7986,-6.8034,-6.8071,-6.8063,-6.7458,0,0,0,0,0,-6.7315,-6.7431,-6.7435,-6.7638,-6.7665,-6.7637,-6.7698,-6.7653,-6.7702,-6.7722,-6.7734,-6.7787,-6.7892,-6.7964,-6.8061,-6.8311,-6.8317,-6.8429,-6.8467,-6.8499,-6.8526,-6.8659,-6.8708,-6.8179,-6.8179,-6.8178,0,0,-6.7465,-6.7486,-6.7563,-6.7679,-6.7712,-6.7834,-6.7656,-6.7793,-6.7883,-6.7743,-6.7925,-6.7936,-6.799,-6.8212,-6.831,-6.8231,-6.8674,-6.8528,-6.8553,-6.8563,-6.8687,-6.8737,-6.8782,-6.8194,-6.8192,-6.8189,0,0,-6.78,-6.7828,-6.7998,-6.8034,-6.8086,-6.8065,-6.8107,-6.8136,-6.8138,-6.8318,-6.8215,-6.8323,-6.8507,-6.8549,-6.8595,-6.8945,-6.8862,-6.8979,-6.918,-6.931,-6.9351,-6.9388,-6.9513,-6.9558,-6.9006,-6.9007,-6.9007,0,-6.798,-6.8159,-6.8096,-6.824,-6.8294,-6.8171,-6.8343,-6.8382,-6.8464,-6.8505,-6.8415,-6.8642,-6.867,-6.89,-6.8985,-6.9027,-6.9072,-6.8974,-6.935,-6.9386,-6.942,-6.9538,-6.9585,-6.9021,-6.9019,-6.9018,-6.9016,0,-6.8377,-6.8503,-6.8635,-6.8715,-6.8784,-6.8942,-6.8903,-6.8981,-6.8929,-6.8919,-6.9105,-6.9133,-6.9234,-6.9285,-6.9237,-6.9509,-6.9458,-6.9361,-6.9201,-6.9485,-6.9595,-6.964,-6.904,-6.9035,-6.9031,-6.9028,0,0,-6.8845,-6.8887,-6.8936,-6.8971,-6.9018,-6.9115,-6.9267,-6.9364,-6.9432,-6.9492,-6.9619,-6.9777,-6.9687,-6.9739,-6.9694,-6.9809,-7.0084,-6.9697,-6.9697,-6.9767,-7.0385,-7.0457,-7.0511,-7.0029,-7.0037,-7.0044,-7.038,0,-6.9178,-6.9438,-6.9386,-6.9642,-6.9757,-6.9642,-6.9775,-6.9819,-6.9813,-6.9911,-6.9905,-7.0018,-6.989,-6.9921,-7.0029,-7.0028,-7.0207,-7.0003,-7.0147,-7.0153,-7.0136,-7.0568,-7.0646,-7.0961,-7.0423,-7.043,-7.0435,0,-6.96,-6.9675,-6.9942,-6.997,-7.0016,-7.0137,-7.0221,-7.0315,-7.0363,-7.0351,-7.0409,-7.0343,-7.0495,-7.0333,-7.0542,-7.0405,-7.046,-7.0469,-7.048,-7.0491,-7.0311,-7.0591,-7.1061,-7.1108,-7.0502,-7.0497,-7.0492,0,-6.9914,-7.0081,-7.0262,-7.0295,-7.0333,-7.042,-7.044,-7.0478,-7.0539,-7.0614,-7.0653,-7.0745,-7.0795,-7.0868,-7.0829,-7.0715,-7.1045,-7.088,-7.104,-7.1041,-7.1114,-7.111,-7.16,-7.1152,-7.1151,-7.115,-7.1149,0,-7.0291,-7.0459,-7.0403,-7.0515,-7.07,-7.0638,-7.0823,-7.0829,-7.0865,-7.0976,-7.0883,-7.0989,-7.093,-7.1033,-7.1004,-7.1181,-7.1205,-7.12,-7.119,-7.1208,-7.1209,-7.1243,-7.122,-7.1163,-7.116,-7.1157,-7.1155,0,-7.0672,-7.0642,-7.0831,-7.0851,-7.0859,-7.0995,-7.1012,-7.1116,-7.1103,-7.1245,-7.1275,-7.1255,-7.1371,-7.1338,-7.1465,-7.1445,-7.1669,-7.1632,-7.1653,-7.1643,-7.1804,-7.179,-7.2333,-7.2401,-7.191,-7.1915,-7.1919,0,-7.0914,-7.104,-7.1073,-7.1139,-7.1166,-7.1276,-7.1337,-7.1281,-7.1349,-7.1413,-7.151,-7.1617,-7.17,-7.1891,-7.1889,-7.1985,-7.1948,-7.2132,-7.1962,-7.1976,-7.1951,-7.1943,-7.1955,-7.2166,-7.2172,-7.2176,-7.218,0,-7.1347,-7.1325,-7.1416,-7.1504,-7.1579,-7.1646,-7.1703,-7.1764,-7.1712,-7.1794,-7.191,-7.1974,-7.2102,-7.221,-7.2298,-7.2319,-7.2243,-7.2234,-7.2275,-7.2295,-7.2302,-7.2299,-7.1744,-7.2221,-7.2217,-7.2214,-7.2212,-7.221,-7.1665,-7.1771,-7.181,-7.1915,-7.1953,-7.2009,-7.2107,-7.2106,-7.2201,-7.23,-7.2261,-7.2395,-7.2439,-7.2549,-7.2582,-7.2686,-7.2616,-7.2677,-7.2692,-7.2708,-7.2728,-7.2286,-7.2702,-7.2701,-7.27,-7.2699,-7.2698,0,-7.2092,-7.2111,-7.2208,-7.2291,-7.2374,-7.2292,-7.2352,-7.2427,-7.2545,-7.2592,-7.2675,-7.2809,-7.2913,-7.2919,-7.3016,-7.3099,-7.3066,-7.3127,-7.312,-7.3126,-7.2785,-7.2739,-7.3151,-7.3151,-7.3151,-7.3151,-7.3151,-7.3151,-7.2324,-7.2499,-7.2482,-7.2675,-7.2693,-7.2822,-7.2863,-7.2914,-7.2951,-7.3104,-7.3189,-7.3192,-7.3223,-7.3322,-7.3414,-7.3413,-7.3453,-7.3527,-7.3513,-7.3195,-7.315,-7.3107,-7.3063,-7.3536,-7.3537,-7.3844,-7.3847,-7.3849]},{"header":{"parameterUnit":"m.s-1","parameterCategory":1,"la1":30.2991,"la2":30.254,"lo1":-89.0895,"lo2":-89.0444,"dy":0.0017,"dx":0.0017,"nx":28,"ny":28,"refTime":"2024-06-20T03:00:00:Z","depth":0,"parameterNumber":3,"parameterNumberName":"V-component_of_WINDS"},"data":[0,0,0,0,0,0,0,0,0,0,0,0,0,0,0,0,0,0,0,0,0,0,0,0,0,0,0,0,0,0,0,0,0,0,0,0,0,0,0,0,0,0,0,0,0,0,0,0,0,0,0,0,0,0,0,0,0,0,-0.9875,-0.9875,0,-0.9848,-0.9847,-0.9847,-0.9895,-0.9897,-0.9899,-0.99,-0.9866,-0.9864,-0.9862,0,0,0,0,0,0,0,0,0,0,0,0,0,-0.9964,-0.9962,-0.9875,-0.9875,-0.9875,-0.9848,-0.9847,-0.9847,-0.9895,-0.9897,-0.9899,-0.9901,-0.9867,-0.9864,-0.9861,0,0,0,0,0,0,0,0,0,0,0,0,0,-0.993,-0.9961,-0.9875,-0.9896,-0.9897,-0.9848,-0.9847,-0.9847,-0.9895,-0.9897,-0.9899,-0.9902,-0.9868,-0.9865,-0.9861,-0.9789,0,0,-0.985,-0.9848,0,0,0,0,0,0,0,0,-0.9931,-0.9926,-0.9893,-0.9894,-0.9896,-0.9878,-0.9866,-0.9827,-0.9894,-0.9895,-0.99,-0.9903,-0.9868,-0.9864,-0.9853,-0.9788,-0.9786,-0.985,-0.9847,-0.9846,-0.9845,0,0,0,0,0,0,0,-0.9934,-0.9928,-0.9864,-0.9892,-0.9894,-0.9904,-0.9902,-0.9859,-0.9868,-0.9895,-0.9899,-0.9895,-0.9869,-0.9857,-0.9853,-0.9786,-0.985,-0.9846,-0.9844,-0.9843,-0.9655,-0.9653,0,0,0,0,0,0,-0.9934,-0.9929,-0.9865,-0.9863,-0.992,-0.99,-0.9898,-0.9881,-0.9868,-0.9869,-0.9893,-0.9898,-0.9862,-0.9857,-0.9852,-0.9764,-0.9846,-0.9842,-0.984,-0.9658,-0.9655,-0.9652,0,0,0,0,0,0,-0.9936,-0.9928,-0.9866,-0.9897,-0.989,-0.9896,-0.9876,-0.9879,-0.9867,-0.9867,-0.9868,-0.9879,-0.9864,-0.9857,-0.9804,-0.9764,-0.9841,-0.9837,-0.9661,-0.9657,-0.9653,-0.9589,0,0,0,0,0,0,-0.9939,-0.9929,-0.9903,-0.9896,-0.9888,-0.982,-0.9874,-0.9877,-0.9861,-0.9867,-0.9854,-0.9855,-0.9865,-0.9809,-0.98,-0.976,-0.9835,-0.9665,-0.966,-0.9655,-0.9594,-0.9583,-0.9573,0,0,0,0,0,-0.9942,-0.9885,-0.9901,-0.9893,-0.9856,-0.9818,-0.9813,-0.9828,-0.9858,-0.983,-0.983,-0.9855,-0.977,-0.9803,-0.9794,-0.9752,-0.9668,-0.9661,-0.9655,-0.9599,-0.9585,-0.9573,0,0,0,0,0,0,-0.9885,-0.9885,-0.9902,-0.9843,-0.983,-0.9826,-0.9792,-0.9813,-0.979,-0.9795,-0.9813,-0.981,-0.9752,-0.9747,-0.9784,-0.968,-0.9724,-0.9715,-0.9684,-0.9671,-0.9661,-0.9661,-0.9832,0,0,0,0,0,-0.9866,-0.9837,-0.9837,-0.9785,-0.9777,-0.9786,-0.977,-0.9782,-0.9769,-0.9763,-0.9759,-0.9743,-0.9713,-0.9692,-0.9665,-0.9595,-0.9591,-0.9561,-0.9551,-0.9542,-0.9533,-0.9492,-0.9478,-0.9631,-0.9631,-0.9631,0,0,-0.9826,-0.9822,-0.9802,-0.9773,-0.9765,-0.9731,-0.9781,-0.9744,-0.9718,-0.9757,-0.9706,-0.9702,-0.9686,-0.9623,-0.9595,-0.9617,-0.949,-0.9534,-0.9527,-0.9523,-0.9484,-0.947,-0.9457,-0.9627,-0.9628,-0.9628,0,0,-0.9734,-0.973,-0.9684,-0.9675,-0.9662,-0.9668,-0.9656,-0.9649,-0.9648,-0.9598,-0.9625,-0.9595,-0.9543,-0.9529,-0.9515,-0.9418,-0.9438,-0.9409,-0.9351,-0.9311,-0.9299,-0.9288,-0.9249,-0.9236,-0.9401,-0.94,-0.94,0,-0.9684,-0.9637,-0.9657,-0.9618,-0.9603,-0.9638,-0.959,-0.958,-0.9557,-0.9545,-0.9571,-0.9505,-0.9497,-0.943,-0.9406,-0.9395,-0.938,-0.9408,-0.9299,-0.9289,-0.9279,-0.9242,-0.9228,-0.9397,-0.9397,-0.9397,-0.9398,0,-0.9575,-0.9541,-0.9506,-0.9484,-0.9466,-0.9422,-0.9433,-0.9412,-0.9426,-0.9428,-0.9375,-0.9367,-0.9336,-0.9322,-0.9336,-0.9256,-0.9269,-0.9297,-0.9341,-0.926,-0.9226,-0.9212,-0.9391,-0.9392,-0.9394,-0.9395,0,0,-0.9444,-0.9436,-0.9421,-0.9411,-0.9399,-0.9372,-0.933,-0.9302,-0.9281,-0.9265,-0.9226,-0.9182,-0.9207,-0.9191,-0.9203,-0.9169,-0.9087,-0.92,-0.92,-0.9176,-0.8994,-0.897,-0.8954,-0.9102,-0.91,-0.9098,-0.8994,0,-0.935,-0.9278,-0.9294,-0.9221,-0.9189,-0.9222,-0.9184,-0.9171,-0.9172,-0.9143,-0.9144,-0.911,-0.9148,-0.9138,-0.9106,-0.9104,-0.905,-0.9112,-0.9063,-0.9061,-0.9062,-0.8937,-0.8912,-0.8814,-0.8981,-0.8979,-0.8977,0,-0.923,-0.921,-0.9134,-0.9126,-0.9113,-0.9078,-0.9053,-0.9026,-0.9011,-0.9014,-0.8996,-0.9015,-0.8969,-0.9016,-0.8952,-0.8993,-0.8975,-0.8971,-0.8967,-0.896,-0.9011,-0.8922,-0.8784,-0.8768,-0.8957,-0.8959,-0.896,0,-0.9138,-0.9092,-0.904,-0.903,-0.9021,-0.8995,-0.8989,-0.8978,-0.8959,-0.8936,-0.8923,-0.8895,-0.8879,-0.8855,-0.8865,-0.8899,-0.8797,-0.8846,-0.8794,-0.8794,-0.8768,-0.8769,-0.8621,-0.8763,-0.8763,-0.8763,-0.8764,0,-0.9028,-0.8979,-0.8998,-0.8965,-0.891,-0.893,-0.8874,-0.8872,-0.8861,-0.8827,-0.8855,-0.8821,-0.8838,-0.8805,-0.8812,-0.8755,-0.8748,-0.8747,-0.8748,-0.8742,-0.8741,-0.8727,-0.8732,-0.876,-0.876,-0.8761,-0.8762,0,-0.8914,-0.8925,-0.8869,-0.8865,-0.8863,-0.8822,-0.8817,-0.8785,-0.8789,-0.8745,-0.8736,-0.874,-0.8703,-0.8711,-0.867,-0.8675,-0.8602,-0.8614,-0.8606,-0.8608,-0.8555,-0.8558,-0.8389,-0.8366,-0.8527,-0.8525,-0.8524,0,-0.8841,-0.8805,-0.8796,-0.8776,-0.8769,-0.8736,-0.8717,-0.8735,-0.8713,-0.8693,-0.8663,-0.8628,-0.8601,-0.8539,-0.8537,-0.8505,-0.8514,-0.8457,-0.8509,-0.8503,-0.8508,-0.8508,-0.8503,-0.8445,-0.8444,-0.8442,-0.8441,0,-0.871,-0.8717,-0.869,-0.8664,-0.8641,-0.8621,-0.8604,-0.8585,-0.8601,-0.8575,-0.8538,-0.8517,-0.8475,-0.8438,-0.8409,-0.84,-0.8421,-0.8425,-0.8411,-0.8401,-0.8397,-0.8394,-0.8574,-0.8428,-0.8429,-0.843,-0.8431,-0.8431,-0.8611,-0.8579,-0.8567,-0.8536,-0.8525,-0.8507,-0.8476,-0.8477,-0.8447,-0.8415,-0.8427,-0.8383,-0.8367,-0.833,-0.8318,-0.8282,-0.8303,-0.8283,-0.8277,-0.8271,-0.8262,-0.8406,-0.8277,-0.8277,-0.8278,-0.8278,-0.8278,0,-0.8477,-0.8472,-0.8443,-0.8418,-0.8392,-0.8418,-0.8399,-0.8375,-0.8337,-0.8321,-0.8294,-0.825,-0.8215,-0.8211,-0.8177,-0.8148,-0.8157,-0.8138,-0.8138,-0.8135,-0.8248,-0.8262,-0.8132,-0.8132,-0.8132,-0.8132,-0.8132,-0.8132,-0.8404,-0.835,-0.8355,-0.8295,-0.829,-0.8248,-0.8235,-0.8218,-0.8205,-0.8155,-0.8127,-0.8125,-0.8113,-0.8079,-0.8046,-0.8046,-0.803,-0.8007,-0.8009,-0.8113,-0.8128,-0.8142,-0.8154,-0.8004,-0.8004,-0.7899,-0.7898,-0.7897]}]]